This is the latest recevied weather packets stored in our database for station/object IW2NIA-3. If no packets are shown the sender has not sent any weather packets the latest 10 day(s).
| Time | Temp. | Humidity | Pressure | Rain* | Wind** | Luminosity | Snow |
|---|---|---|---|---|---|---|---|
| 1787989723 | 23.89° C | 78% | 1013.5 hPa | 0 mm | - | - | - |
| 1787988810 | 23.89° C | 80% | 1013.6 hPa | 0 mm | - | - | - |
| 1787987909 | 23.33° C | 80% | 1013.4 hPa | 0 mm | - | - | - |
| 1787987014 | 23.33° C | 79% | 1013.4 hPa | 0 mm | - | - | - |
| 1787986111 | 23.33° C | 81% | 1013.4 hPa | 0 mm | - | - | - |
| 1787985224 | 22.78° C | 85% | 1013.4 hPa | 0 mm | - | - | - |
| 1787984321 | 21.67° C | 87% | 1013.4 hPa | 0 mm | - | - | - |
| 1787983415 | 21.11° C | 88% | 1013.2 hPa | 0 mm | - | - | - |
| 1787982513 | 20.56° C | 88% | 1013.1 hPa | 0 mm | - | - | - |
| 1787981613 | 20° C | 89% | 1012.9 hPa | 0 mm | - | - | - |
| 1787980728 | 20° C | 90% | 1012.8 hPa | 0 mm | - | - | - |
| 1787979823 | 20° C | 90% | 1012.7 hPa | 0 mm | - | - | - |
| 1787978918 | 20° C | 90% | 1012.6 hPa | 0 mm | - | - | - |
| 1787978017 | 20.56° C | 89% | 1012.5 hPa | 0 mm | - | - | - |
| 1787977116 | 20.56° C | 89% | 1012.5 hPa | 0 mm | - | - | - |
| 1787976216 | 20.56° C | 89% | 1012.4 hPa | 0 mm | - | - | - |
| 1787975310 | 21.11° C | 89% | 1012.3 hPa | 0 mm | - | - | - |
| 1787974421 | 21.11° C | 89% | 1012.2 hPa | 0 mm | - | - | - |
| 1787973510 | 21.11° C | 88% | 1012 hPa | 0 mm | - | - | - |
| 1787972623 | 21.11° C | 88% | 1011.9 hPa | 0 mm | - | - | - |
| 1787971709 | 21.67° C | 88% | 1011.9 hPa | 0 mm | - | - | - |
| 1787970809 | 21.67° C | 88% | 1011.9 hPa | 0 mm | - | - | - |
| 1787969923 | 21.67° C | 87% | 1011.9 hPa | 0 mm | - | - | - |
| 1787969017 | 22.22° C | 87% | 1011.9 hPa | 0 mm | - | - | - |
| 1787968109 | 22.22° C | 87% | 1011.8 hPa | 0 mm | - | - | - |
* Rain latest hour (hover to see other rain measurements)
** Current wind speed in m/s (hover to see current wind gust speed)